Showing default

COSMOS 2092, 20737

Orbit data source: Space-Track

COSMOS 2092, 20737 is a payload satellite owned by UNKS (CIS) in LEO that was launched on Wed, 08 Aug 1990 UTC via a TSIKLON-3 launch vehicle from the Plesetsk Missile And Space Complex (PKMTR). Payloads include a variety of satellites, spacecraft, and rockets equipped with specific instruments for various scientific and technological missions. These include communications satellites like Starlink; space stations such as the ISS; scientific satellites like the Hubble; Earth observation satellites from companies like Planet Labs, Umbra, and HawkEye 360; GPS; miniature CubeSats for education and research; and military/defense satellites.

Loading next visibility...
COSMOS 2092 details
Identifier
20737, 1990-070C
Orbit
LEO
Last TLE update1 day ago
Origin
Flag of CISUNKS (CIS)
ManufacturerNPO PM
MissionDefense Communications
Bus & MotorSTRELA-3, Unknown motor
Mass225 kg wet, 225 kg dry
Launch date (UTC)
1990-08-08 (34 years ago)
Launch vehicle
TSIKLON-3
Launch site
Plesetsk Missile And Space Complex (PKMTR)
Object type
Payload
Rocket body
Debris
Shape & HBRCyl, 1.6 m
Radar Cross Section1.257 m², Large (>1 m²)

Expand to show TLE details & history

TLE from 1 day ago
0 COSMOS 2092
1 20737U 90070C   25024.74271603  .00000027  00000-0  88293-4 0  9991
2 20737  82.5672 271.2826 0003795 196.6568 229.9119 12.63330501589159
Epoch: 2025-01-24T17:49Z
Definitive object data (Epoch: 2025-01-24T17:49:30.665Z)
Latitude65.52985°
Longitude-103.82299°
Altitude1,422.42 km
Speed7.155 km/s
True Right ascension19h 11m 25s
True Declination65° 24' 40"
Sunlit
Object was in daylight at TLE epoch
Visualization TLE readout
Latitude41.31611°
Longitude52.38193°
Altitude1,413.44 km
Speed7.158 km/s
Apparent Right ascension06h 48m 31s
Apparent Declination5° 55' 50"
Sunlit
Object is in full shadow
Visualization observer readout
Local Sidereal Time20:15:38
Azimuth28.777° NE
Elevation-39.951°
Doppler factor1
Orbital elements
Apogee altitude1,409.502 km
Perigee altitude1,403.593 km
Semi-major axis7,784.684 km
Eccentricity0.0003795
Inclination82.5672°
RAAN271.2826°
Arg. of periapsis196.6568°
True anomaly229.87864°
Mean anomaly229.9119°
Eccentric anomaly229.89527°
Mean motion3.15996 °/min
BSTAR0.000088293
Orbital period113.93 mins
Loading maneuver chart data...
Loading historical data...
Loading historical data...
Loading historical data...
Loading historical data...
Loading historical data...
Loading historical data...
Loading historical data...

COSMOS 2092 Visibility forecast

Observer location: undefined°, undefined

Span
Click to sort rows by Start time (UTC) header in descending order
Start Az.
Max El. time (UTC)
Max El. Az.
Max El.
End time (UTC)
End Az.
11 mins2025-01-26 02:23:47.680Z19.448° NNE2025-01-26 02:29:47.680Z66.739° ENE19.852°2025-01-26 02:34:47.680Z107.336° ESE
14 mins2025-01-26 04:18:47.680Z348.729° N2025-01-26 04:25:47.680Z241.947° WSW44.257°2025-01-26 04:32:47.680Z181.736° SSW
5 mins2025-01-26 06:16:47.680Z300.46° NW2025-01-26 06:18:47.680Z285.428° WNW12.776°2025-01-26 06:21:47.680Z263.205° W
9 mins2025-01-26 15:14:47.680Z110.248° ESE2025-01-26 15:18:47.680Z76.094° E18.918°2025-01-26 15:23:47.680Z38.027° NE
14 mins2025-01-26 17:05:47.680Z193.164° SSW2025-01-26 17:12:47.680Z311.592° NW44.082°2025-01-26 17:19:47.680Z4.401° NNE
|